Location: Ajisawe
(8.4333°N, 4.3833°E)
Time: 01:24:53
(UTC+00:00)

Courier 1B Rocket - Pass Details

Date: 29 April 2021
Orbit: 920 x 1202 km, 28.3° (Epoch: 13 May)

Event Time Altitude Azimuth Distance (km) Brightness Sun altitude
Rises 23:58:58 0° 283° (WNW) 3,843 - -66.6°
Reaches altitude 10° 00:01:51 10° 275° (W) 2,932 - -66.5°
Maximum altitude 00:08:25 37° 210° (SSW) 1,699 - -66.0°
Drops below altitude 10° 00:15:22 10° 145° (SE) 3,092 - -65.5°
Sets 00:18:31 0° 137° (SE) 4,076 - -65.2°
